Voltar ao catálogo

IRIDIUM 119

AtivoComunicaçõesPO
NORAD 42959·PAYLOAD·🇺🇸 United States

Lançado Oct 9, 2017 de Vandenberg Space Force Base

Loading…

Próximas Passagens (próximas 24 horas)

TLE

AtualizadoSource: CelesTrak SupGP

Época: Sep 14, 2026, 21:01 UTC

1 42959C 17061E   26257.87604167 -.00002056  00000+0 -73500-3 0  2574
2 42959  86.4028 347.7729 0002315  96.0191  43.5900 14.34219706    14

Acompanhe IRIDIUM 119 em tempo real com AllMySat

Download on the App Store